Location: Brno
(49.2000°N, 16.6330°E)
Time: 00:30:06
(UTC+02:00)

Daily predictions for brighter satellites

Satellite Brightness Start Highest point End
(mag) Time Altitude Azimuth Time Altitude Azimuth Time Altitude Azimuth
ATLAS CENTAUR R/B 4.5 00:06:12 47° SSW 00:10:00 79° SE 00:38:40 10° NE
Cosmos 2219 Rocket 3.1 00:14:17 42° NE 00:14:17 42° NE 00:18:02 10° NNE
Cosmos 1655 Rocket 4.1 00:14:19 10° N 00:20:08 75° NNE 00:20:08 75° NNE
ATLAS CENTAUR R/B 3.7 00:19:58 10° NNW 00:23:35 22° NNE 00:23:47 22° NNE
ATLAS 3B R/B 3.1 00:30:43 57° E 00:30:43 57° E 00:36:59 10° NE
SL-16 R/B 3.8 00:36:42 25° ENE 00:36:42 25° ENE 00:39:36 10° NE
Cosmos 2237 Rocket 3.0 00:37:49 44° NE 00:37:49 44° NE 00:41:44 10° NNE
Cosmos 1452 Rocket 4.4 00:31:36 10° NNW 00:35:32 47° N 00:35:32 47° N
Cosmos 1634 Rocket 4.2 00:38:49 66° NW 00:38:49 66° NW 00:44:42 10° N
Cosmos 2297 4.2 00:34:44 10° NNW 00:39:13 56° NNW 00:39:13 56° NNW
Cosmos 1980 4.4 00:43:26 49° NE 00:43:26 49° NE 00:47:30 10° NNE
Cosmos 2333 Rocket 2.8 00:45:30 54° NNE 00:45:30 54° NNE 00:49:56 10° NNE
Cosmos 2279 Rocket 4.1 00:52:10 70° N 00:52:10 70° N 00:57:37 10° N
CZ-2C R/B 4.0 00:55:54 44° N 00:55:54 44° N 00:59:26 10° N
Exosat Rocket 4.3 00:52:17 10° NNW 00:56:35 52° NNE 00:56:35 52° NNE
COSMOS 2428 3.9 01:00:42 34° WNW 01:01:14 35° NW 01:06:28 10° NNE
Cosmos 2278 Rocket 3.8 01:03:01 10° NW 01:05:57 25° WNW 01:05:57 25° WNW
Cosmos 2266 Rocket 4.1 01:02:31 10° N 01:08:26 73° NNE 01:08:26 73° NNE
CZ-4C R/B 3.5 01:12:42 32° ENE 01:12:42 32° ENE 01:16:21 10° NE
Cosmos 2221 4.4 01:17:02 29° N 01:17:02 29° N 01:19:18 10° N
NOSS 0 Rocket 4.3 01:19:45 59° NW 01:19:45 59° NW 01:25:37 10° NNE
CZ-2C R/B 3.2 01:14:00 10° NNE 01:18:30 60° N 01:18:30 60° N
USA 238 DEB 3.7 01:33:15 70° E 01:33:15 70° E 01:39:50 10° NE
USA 238 3.7 01:33:22 70° E 01:33:22 70° E 01:39:55 10° NE
COSMOS 2455 3.5 01:41:51 46° NW 01:42:12 46° NW 01:48:00 10° NNE
Lacrosse 4 Rocket 4.3 01:40:25 11° NW 01:42:12 13° NNW 01:44:20 10° N
NOSS 3-2 (A) 4.3 01:46:45 40° E 01:46:45 40° E 01:52:05 10° NE
Cosmos 2369 Rocket 2.8 01:43:32 10° NNW 01:49:00 50° NE 01:49:26 49° ENE
NOSS 3-3 (A) 4.3 01:47:38 10° NW 01:54:58 83° SW 01:55:35 76° S
NOSS 3-3 (C) 4.3 01:47:44 10° NW 01:55:04 84° SW 01:55:43 76° SSE
Cosmos 2219 Rocket 3.7 01:55:59 25° WNW 01:56:54 27° NW 02:01:38 10° NNE
Cosmos 1943 Rocket 3.8 01:52:31 10° NNW 01:57:32 31° NE 02:02:14 11° ESE
ATLAS CENTAUR R/B 3.8 01:58:49 10° NW 02:00:04 18° NW 02:00:04 18° NW
Cosmos 1331 Rocket 4.5 01:59:50 10° NNW 02:04:43 58° NE 02:04:43 58° NE
NOSS 3-2 (C) 4.1 02:05:39 45° ESE 02:05:39 45° ESE 02:11:36 10° NE
Cosmos 839 Rocket 4.4 01:59:46 10° NW 02:08:33 89° NE 02:10:12 59° SE
SL-16 R/B 2.7 02:18:35 49° NW 02:18:35 49° NW 02:24:04 10° NNE
Cosmos 2237 Rocket 3.7 02:19:38 26° WNW 02:20:39 27° NW 02:25:28 10° NNE
ATLAS 3B R/B 3.6 02:17:58 33° W 02:20:48 47° NW 02:27:48 10° NE
BREEZE-M DEB (TANK) 3.6 02:23:18 45° ENE 02:23:18 45° ENE 02:26:34 10° ENE
Cosmos 1269 Rocket 4.4 02:23:10 60° NNW 02:23:10 60° NNW 02:27:49 10° NNE
Cosmos 2333 Rocket 4.0 02:27:30 20° WNW 02:29:10 23° NW 02:33:43 10° N
Cosmos 2263 4.3 02:25:55 10° NNW 02:31:44 74° ENE 02:32:33 64° ESE
Cosmos 1867 4.1 02:33:01 50° NW 02:33:12 50° NW 02:38:33 10° NNE
ATLAS 5 CENTAUR R/B 3.4 02:34:31 27° ESE 02:34:31 27° ESE 02:38:29 10° ENE
PSLV R/B 4.3 02:31:33 10° N 02:35:29 57° NNW 02:35:29 57° NNW
ERS-2 4.2 02:45:39 10° NE 02:48:22 22° E 02:48:22 22° E
IRS-P3 4.0 02:43:48 10° NNE 02:49:11 86° ESE 02:49:20 84° SSE
S3M 3.8 02:49:18 69° SW 02:50:01 79° W 02:56:24 10° N
CZ-2D R/B 3.8 02:47:32 10° NE 02:51:55 26° E 02:54:09 20° SE
Cosmos 1271 Rocket 3.8 02:55:00 44° N 02:55:00 44° N 02:57:51 10° N
Cosmos 1869 Rocket 4.4 02:49:26 10° NNW 02:52:35 44° NNW 02:52:35 44° NNW
Cosmos 1386 Rocket 4.3 02:49:11 10° N 02:55:31 84° W 02:56:34 64° S
In-Cosmos 22 Rocket 4.0 02:51:34 10° NNW 02:56:38 71° WNW 02:56:38 71° WNW
CZ-4C R/B 2.9 02:57:52 41° WNW 02:59:09 48° NW 03:05:20 10° NE
SL-08 R/B 3.9 03:01:38 45° NW 03:01:38 45° NW 03:05:12 10° NNW
CBERS-1 3.9 02:56:20 10° NNE 03:01:29 83° ESE 03:01:49 77° SSE
Cosmos 1603 3.9 03:01:07 53° W 03:01:42 55° NW 03:07:22 10° NNE
Cosmos 2251 Rocket 3.3 03:02:12 82° SSW 03:02:27 89° WNW 03:07:43 10° NNE
Cosmos 1553 Rocket 4.0 03:06:32 56° WSW 03:07:15 60° WNW 03:13:17 10° N
Cosmos 1745 Rocket 4.1 03:01:41 10° NNW 03:07:51 53° W 03:08:20 52° WSW
Meteor 1-27 4.1 03:07:55 67° S 03:08:44 90° E 03:14:22 10° NNE
Cosmos 1709 Rocket 4.0 03:02:50 10° N 03:09:14 81° E 03:11:54 37° SSE
USA 234 4.5 03:07:10 10° ENE 03:12:41 28° SE 03:14:54 23° SSE
Resurs 1-4 Rocket 3.2 03:08:28 10° NNE 03:13:25 39° E 03:15:44 26° SE
Cosmos 494 Rocket 3.8 03:12:54 71° SSW 03:13:30 87° ESE 03:18:47 10° NNE
AQUA 3.7 03:09:02 10° NNE 03:13:49 79° WNW 03:13:58 78° W
SL-16 R/B 2.6 03:12:17 25° SSE 03:16:08 78° ENE 03:22:22 10° NNW
NPP 3.6 03:13:44 10° N 03:19:05 65° WNW 03:19:49 58° WSW
Cosmos 2242 Rocket 3.6 03:22:35 72° SSE 03:23:01 82° E 03:27:35 10° NNE
Cosmos 1726 3.4 03:27:04 32° NW 03:27:04 32° NW 03:29:33 10° N
Cosmos 1943 3.2 03:26:18 55° WSW 03:27:30 73° WNW 03:33:10 10° NNE
Cosmos 1733 Rocket 3.1 03:23:59 10° N 03:28:25 79° E 03:29:14 58° SSE
Iridium 2 3.8 03:25:42 10° N 03:29:05 68° NNW 03:29:05 68° NNW
SL-27 R/B 3.9 03:31:21 30° ESE 03:31:48 31° ESE 03:35:02 10° NE
Cosmos 2369 Rocket 3.4 03:27:57 10° NW 03:31:09 26° WNW 03:31:09 26° WNW
Cosmos 1302 Rocket 4.4 03:30:08 10° NW 03:34:37 43° W 03:34:37 43° W
NOSS 3-2 (A) 4.0 03:34:08 35° W 03:36:38 54° NW 03:43:26 10° NE
Meteor 2-3 Rocket 4.2 03:32:57 10° NNW 03:38:20 41° W 03:38:47 41° WSW
Cosmos 1892 3.6 03:34:40 10° NNW 03:37:21 37° NW 03:37:21 37° NW
Cosmos 1707 Rocket 4.1 03:38:34 42° WNW 03:38:34 42° WNW 03:42:46 10° N
SeaSat 1 3.5 03:35:22 10° SE 03:40:04 46° NE 03:44:47 10° NNW
Cosmos 2184 Rocket 4.4 03:35:03 10° N 03:41:25 64° ENE 03:47:42 10° SSE
Cosmos 1943 Rocket 2.2 03:36:04 10° NW 03:41:38 58° WSW 03:43:37 38° S
COSMOS 2406 4.2 03:38:45 23° SSE 03:41:56 42° ESE 03:47:20 10° NE
CENTAUR R/B 3.0 03:39:10 32° S 03:41:58 56° ESE 03:48:47 10° NE
UNKNOWN OBJECT B 3.4 03:47:32 10° NNE 03:51:11 50° E 03:52:31 33° SSE
EO 1 Del DPAF 3.2 03:50:00 40° SSE 03:51:19 86° ENE 03:55:14 10° NNW
IRS-1D 3.5 03:49:06 10° NNE 03:54:22 85° WNW 03:56:43 34° SSW
Spot 4 Rocket 4.1 03:50:24 10° N 03:55:30 60° WNW 03:57:10 40° SW
NOSS 3-2 (C) 4.1 03:53:05 29° W 03:56:10 52° NW 04:02:58 10° NE
ARIANE 5 R/B 2.5 03:51:08 10° NNE 03:56:23 78° WNW 03:58:35 36° SSW
Meteor 2-11 Rocket 4.4 03:55:13 32° SSW 03:58:13 75° WNW 04:04:19 10° N
Cosmos 1862 3.4 03:55:44 10° N 03:59:43 74° E 04:02:21 20° SSE
Cosmos 1908 Rocket 3.6 03:56:29 10° N 04:00:54 79° E 04:04:21 16° SSE
Meteor 2-10 4.3 04:01:18 36° SW 04:03:09 53° WNW 04:08:21 10° N
Cosmos 1184 Rocket 3.9 04:00:36 10° NNW 04:02:56 32° NW 04:02:56 32° NW
SL-16 R/B 4.4 04:01:06 10° WNW 04:04:07 14° NNW 04:07:09 10° N
Cosmos 1408 2.7 04:01:23 10° N 04:05:09 78° E 04:07:34 21° SSE
Cosmos 1656 Rocket 3.5 03:59:52 10° NNW 04:05:18 75° WSW 04:10:41 10° SSE
Cosmos 1869 3.2 04:05:51 47° SW 04:06:49 68° WNW 04:10:47 10° N
Cosmos 1455 2.5 04:09:05 43° WSW 04:09:38 46° WNW 04:13:25 10° N
ARGOS Delta rocket 4.1 04:06:09 10° NNE 04:10:32 60° E 04:13:56 16° S
CZ-2C R/B 3.9 04:08:37 10° SSE 04:13:00 68° ENE 04:17:26 10° N
ERBS 4.5 04:12:03 13° NW 04:14:22 23° N 04:17:16 10° NE
Cosmos 2285 Rocket 4.0 04:09:22 10° NNW 04:15:44 64° WSW 04:22:01 10° S
ATLAS 5 CENTAUR R/B 2.2 04:16:05 30° WSW 04:18:26 60° NW 04:23:49 10° NE
Cosmos 1174 4.2 04:16:50 27° SSW 04:19:32 72° SE 04:23:38 10° NE
Cosmos 2315 Rocket 4.4 04:16:29 27° SW 04:19:36 47° WNW 04:25:42 10° N
Okean O Rocket 2.4 04:15:41 10° NNE 04:20:05 52° E 04:24:25 10° S
ADEOS 4.3 04:15:23 10° N 04:20:08 36° WNW 04:22:14 26° WSW
Abrixas rocket 3.2 04:22:15 31° S 04:22:15 31° S 04:24:44 10° SE
ERS-2 3.0 04:19:06 10° N 04:22:29 33° WNW 04:23:12 30° W
Cosmos 1703 Rocket 3.8 04:19:29 14° S 04:23:16 70° E 04:27:45 10° NNE
Cosmos 1992 Rocket 4.1 04:20:45 10° NNW 04:25:47 50° WSW 04:30:50 10° S
Cosmos 2221 Rocket 3.9 04:21:49 12° S 04:25:51 66° E 04:30:15 10° NNE
Cosmos 1190 Rocket 4.5 04:23:22 12° S 04:28:00 58° ESE 04:33:06 10° NNE
Cosmos 1933 3.3 04:26:39 22° SSW 04:29:15 80° W 04:33:22 10° N
CZ-2D R/B 2.4 04:27:11 10° N 04:32:17 51° WNW 04:35:29 22° SW
MOS 1-B 4.3 04:28:25 10° NNE 04:34:12 71° WNW 04:38:55 16° SSW
Sich 1 Rocket 4.1 04:31:52 10° NNW 04:35:57 38° W 04:38:25 21° SSW
Cosmos 1825 2.5 04:32:50 10° NNW 04:36:29 44° W 04:38:44 20° SSW
CZ-3A R/B 3.5 04:32:37 10° WNW 04:37:30 44° N 04:41:47 10° ENE
BREEZE-M DEB (TANK) 4.5 04:37:49 22° WSW 04:39:34 29° SSW 04:46:28 10° SSE
CZ-4B R/B 3.3 04:38:07 10° NNE 04:41:46 57° ESE 04:45:32 10° S
Cosmos 389 Rocket 3.4 04:41:41 25° WSW 04:42:48 31° WNW 04:46:01 10° N
Okean 1-7 3.2 04:41:55 10° S 04:46:14 77° E 04:50:37 10° NNE
Thor Agena Rocket 3.6 04:42:40 10° SSE 04:47:51 89° WSW 04:53:08 10° NNW
CZ-4C R/B 4.2 04:44:25 10° WNW 04:49:16 24° N 04:54:38 10° NE
PSLV R/B 3.6 04:45:46 10° N 04:49:32 75° WNW 04:53:05 12° SSW
Cosmos 1697 Rocket 4.4 04:45:17 10° NNW 04:50:27 36° NE 04:55:36 10° ESE
Resurs 1-4 Rocket 2.9 04:48:28 10° N 04:53:13 35° WNW 04:56:49 16° WSW
USA 32 4.0 04:49:11 10° SSW 04:54:23 69° W 04:59:38 10° N
Nadezhda 1 Rocket 4.0 04:48:51 10° SSW 04:55:08 69° WNW 05:01:32 10° N
USA 234 3.3 04:49:43 10° ENE 04:56:18 82° SE 05:02:15 13° SW
MOZ.5/SAFIR/RUBIN 5/SL-8 4.1 04:53:17 10° S 04:57:42 43° W 05:02:09 10° NNW
SL-16 R/B 3.7 04:57:23 15° SW 05:00:27 21° W 05:05:01 10° NW
ADEOS II 3.1 04:55:49 10° NNE 05:00:55 47° E 05:05:58 10° S
Aureole 3 Rocket 3.4 04:56:06 10° SSW 05:02:02 67° W 05:06:17 10° N
COSMOS 2487 2.5 04:58:59 11° SSW 05:02:28 87° WNW 05:06:06 10° NNE
Cosmos 2278 3.7 05:00:30 10° NNW 05:06:15 85° WSW 05:11:58 10° SSE
Cosmos 676 Rocket 4.2 05:01:20 10° SSW 05:06:30 74° ESE 05:11:43 10° NNE
SL-27 R/B 4.0 05:05:06 15° WSW 05:07:08 23° WNW 05:10:05 10° N
Okean 2 Rocket 3.4 05:03:04 10° NNW 05:07:23 45° W 05:11:41 10° SSW
Meteor 2-10 Rocket 4.2 05:02:08 10° S 05:07:49 64° E 05:13:22 10° NNE
ADEOS Rocket 3.9 05:04:01 10° NNE 05:11:49 74° ESE 05:19:31 10° S
Meteor 1-26 Rocket 4.3 05:07:12 10° SSW 05:13:03 71° WNW 05:18:59 10° N
Cosmos 1980 Rocket 4.0 05:09:45 10° NNW 05:14:59 35° NE 05:20:11 10° ESE
Cosmos 1295 Rocket 4.5 05:09:35 10° N 05:15:44 88° W 05:21:54 10° S
Cosmos 1356 3.7 05:12:38 10° N 05:16:11 74° ENE 05:19:43 10° SSE
SeaSat 1 3.1 05:13:20 10° S 05:17:43 32° WSW 05:22:09 10° NW
Cosmos 2181 Rocket 4.2 05:11:26 10° S 05:17:51 86° E 05:24:16 10° N
Cosmos 1782 Rocket 4.4 05:14:45 10° NNW 05:18:29 28° W 05:22:12 10° SSW
Cosmos 407 Rocket 3.6 05:15:15 10° SSW 05:20:27 67° WNW 05:25:47 10° NNE
Cosmos 2369 3.7 05:15:52 10° NNW 05:21:37 73° WSW 05:27:19 10° SSE
IRS-1C Rocket 4.5 05:17:33 10° N 05:22:36 47° WNW 05:27:37 10° SW
Cosmos 1656 3.9 05:20:03 10° NNW 05:25:31 74° ENE 05:30:57 10° SE
CZ-4B R/B 3.3 05:20:32 10° N 05:25:44 57° WNW 05:30:54 10° SW
Cosmos 2154 Rocket 4.3 05:20:01 10° NNW 05:26:01 46° W 05:32:00 10° SSW
COSMOS 2406 3.9 05:20:55 10° WSW 05:26:19 40° NW 05:31:43 10° NNE
USA 129 2.1 05:28:40 10° SSW 05:30:01 24° W 05:31:29 10° NW
Meteor PRIRODA 4.0 05:26:57 10° NNE 05:30:43 74° ESE 05:34:29 10° S
CZ-4B DEB 4.4 05:26:08 10° N 05:31:30 56° WNW 05:36:48 10° SW
Cosmos 1140 Rocket 3.9 05:27:15 10° S 05:32:20 68° ESE 05:37:28 10° NNE
CENTAUR R/B 3.3 05:26:41 10° WSW 05:32:52 46° NNW 05:39:53 10° NE
Cosmos 1300 Rocket 3.9 05:29:32 10° N 05:33:53 73° E 05:38:10 10° SSE
ARIANE 5 R/B 4.4 05:31:52 10° NNW 05:34:42 15° NW 05:37:31 10° W
Cosmos 1400 Rocket 2.8 05:35:18 10° NNW 05:39:14 90° WSW 05:43:06 10° S
Geosat 4.5 05:35:24 10° NE 05:40:26 66° ESE 05:45:25 10° SSW
